sat.trackr.live / text

‹ back to catalog

STARLINK-5754

NORAD 55579 · 2023-020L

PAYLOAD ACTIVE UNKNOWN

§ Identity

Operator
Country
US
Launch date
2023-02-12
Launch site
AFETR
Launch vehicle
Mass (kg)
RCS (m²)

Purposes: comms

External: N2YO · Heavens-Above · Gunter

§ Orbital elements

Epoch: 2026-09-20T05:12:21.921696Z

Period
94.27 min
Inclination
43.0049°
Eccentricity
0.0001259
Mean motion
15.27573450 rev/d
Perigee alt
482.2 km
Apogee alt
483.9 km
Semi-major
6,861.2 km
B*
-9.5238e-6
RAAN
346.5778°
Arg perigee
284.9356°
Mean anomaly
75.1357°
Rev number
19,866

§ Raw data

STARLINK-57541 55579U 23020L   26263.21692039 -.00000524  00000+0 -95238-5 0  99932 55579  43.0049 346.5778 0001259 284.9356  75.1357 15.27573450198664

JSON: /api/v1/satellites/55579 · /tle

For live sub-satellite position, see the globe view (requires WebGL).

§ Visibility from observer

Set your observer location to see the next 7 days of passes ≥ 10°. The values pass through the URL so the page stays shareable.

No JS? Fill the form by hand. The geolocation button needs JavaScript.